[[{"header":{"parameterUnit":"m.s-1","parameterCategory":1,"la1":30.2991,"la2":30.254,"lo1":-89.0895,"lo2":-89.0444,"dx":0.0017,"dy":0.0017,"nx":28,"ny":28,"refTime":"2022-12-14T09:00:00:Z","depth":0,"parameterNumber":2,"parameterNumberName":"U-component_of_WINDS"},"data":[0,0,0,0,0,0,0,0,0,0,0,0,0,0,0,0,0,0,0,0,0,0,0,0,0,0,0,0,0,0,0,0,0,0,0,0,0,0,0,0,0,0,0,0,0,0,0,0,0,0,0,0,0,0,0,0,0,0,3.8458,3.8459,0,3.8466,3.8466,3.8466,3.8385,3.8383,3.8381,3.8379,3.8385,3.8388,3.839,0,0,0,0,0,0,0,0,0,0,0,0,0,3.8374,3.8376,3.8458,3.8459,3.8459,3.8466,3.8466,3.8466,3.8386,3.8383,3.838,3.8378,3.8385,3.8387,3.839,0,0,0,0,0,0,0,0,0,0,0,0,0,3.8399,3.8377,3.8458,3.8419,3.8416,3.8466,3.8466,3.8466,3.8386,3.8383,3.838,3.8376,3.8384,3.8387,3.839,3.8478,0,0,3.8401,3.8402,0,0,0,0,0,0,0,0,3.8398,3.8402,3.8425,3.8422,3.8418,3.8421,3.8438,3.847,3.8387,3.8398,3.8379,3.8375,3.84,3.8402,3.841,3.8478,3.8478,3.8401,3.8403,3.8404,3.8405,0,0,0,0,0,0,0,3.8396,3.8401,3.8461,3.8425,3.8421,3.8401,3.8401,3.8444,3.8417,3.8396,3.8391,3.8393,3.8398,3.8407,3.841,3.8478,3.8401,3.8404,3.8406,3.8407,3.8618,3.8621,0,0,0,0,0,0,3.84,3.8401,3.8461,3.8461,3.84,3.8406,3.8405,3.8424,3.8417,3.8412,3.8395,3.8389,3.8403,3.8406,3.841,3.8511,3.8404,3.8408,3.841,3.8614,3.8619,3.8623,0,0,0,0,0,0,3.8398,3.8406,3.8461,3.843,3.8435,3.8411,3.8432,3.8426,3.8435,3.8416,3.8411,3.841,3.8401,3.8405,3.8461,3.851,3.8409,3.8412,3.861,3.8616,3.8621,3.8715,0,0,0,0,0,0,3.8396,3.8406,3.8439,3.8431,3.8437,3.8513,3.8435,3.8428,3.8441,3.8433,3.8429,3.8425,3.8399,3.8457,3.8465,3.8513,3.8415,3.8606,3.8613,3.8619,3.8708,3.8723,3.8737,0,0,0,0,0,3.8394,3.8465,3.8441,3.8449,3.8478,3.8516,3.8519,3.8488,3.8446,3.8479,3.8466,3.8425,3.8504,3.8463,3.8472,3.8522,3.8602,3.8611,3.8618,3.8701,3.872,3.8736,0,0,0,0,0,0,3.8479,3.8463,3.8436,3.8507,3.8514,3.8502,3.8542,3.8509,3.8527,3.8518,3.8478,3.8478,3.8541,3.8537,3.8492,3.8606,3.8546,3.8556,3.8606,3.8624,3.8638,3.8637,3.8418,0,0,0,0,0,3.8506,3.8539,3.8523,3.8587,3.8592,3.8567,3.8582,3.8558,3.8562,3.8564,3.8556,3.8562,3.8588,3.8606,3.8629,3.8707,3.8705,3.8746,3.876,3.8772,3.8781,3.8822,3.884,3.8649,3.8649,3.8649,0,0,3.8562,3.8558,3.8581,3.8604,3.8606,3.864,3.8569,3.8608,3.8633,3.857,3.8622,3.8617,3.8621,3.8689,3.8718,3.8687,3.8834,3.8782,3.8792,3.8795,3.8832,3.8851,3.8867,3.8654,3.8653,3.8653,0,0,3.8682,3.8683,3.8736,3.8739,3.8743,3.8726,3.874,3.8733,3.8727,3.8779,3.8733,3.8762,3.8808,3.8812,3.8821,3.8944,3.8906,3.8952,3.9027,3.9068,3.9083,3.9096,3.914,3.9156,3.8961,3.8962,3.8962,0,3.8752,3.8801,3.8768,3.881,3.8822,3.8767,3.8821,3.8825,3.8837,3.8846,3.8812,3.8868,3.8867,3.8935,3.8965,3.8974,3.8988,3.8952,3.9084,3.9097,3.9108,3.9149,3.9166,3.8967,3.8967,3.8966,3.8966,0,3.8886,3.8922,3.8965,3.8977,3.8994,3.9042,3.9015,3.9036,3.9011,3.8998,3.9052,3.9048,3.907,3.9084,3.906,3.9149,3.913,3.9091,3.9029,3.9133,3.9171,3.9186,3.8975,3.8973,3.8972,3.897,0,0,3.9059,3.9053,3.907,3.9075,3.9076,3.9102,3.9148,3.9169,3.9188,3.9198,3.9235,3.9275,3.9239,3.9249,3.9224,3.926,3.9357,3.9216,3.9215,3.9242,3.9456,3.9485,3.9504,3.9333,3.9336,3.9338,3.9455,0,3.9176,3.9253,3.9225,3.9304,3.9336,3.9285,3.9325,3.933,3.9319,3.9344,3.9332,3.9362,3.9312,3.9317,3.935,3.9339,3.94,3.933,3.9367,3.9368,3.9367,3.9524,3.9554,3.9665,3.947,3.9472,3.9474,0,3.9322,3.9338,3.9421,3.9417,3.9429,3.9465,3.9483,3.9508,3.9512,3.9502,3.9514,3.9481,3.9526,3.9465,3.9526,3.9479,3.9492,3.9489,3.9493,3.9494,3.9427,3.9529,3.97,3.9716,3.9497,3.9495,3.9494,0,3.9439,3.9482,3.9537,3.9543,3.9539,3.9566,3.9566,3.9567,3.9582,3.9597,3.9606,3.9627,3.9638,3.9654,3.9628,3.9587,3.9693,3.963,3.9685,3.9686,3.9708,3.9707,3.9883,3.9719,3.9719,3.9718,3.9718,0,3.9571,3.9624,3.959,3.9624,3.9681,3.9648,3.9706,3.97,3.9701,3.9733,3.969,3.9721,3.9685,3.9712,3.9692,3.9745,3.9751,3.9743,3.9737,3.9747,3.9748,3.9754,3.9746,3.9723,3.9722,3.9721,3.972,0,3.9712,3.9691,3.9747,3.974,3.9739,3.9782,3.9775,3.9806,3.9792,3.9833,3.9841,3.982,3.985,3.9826,3.9855,3.9842,3.9911,3.9895,3.991,3.9905,3.9961,3.9956,4.0147,4.017,3.9992,3.9994,3.9995,0,3.9797,3.9837,3.9834,3.9852,3.9854,3.9885,3.99,3.9869,3.9886,3.9895,3.9925,3.9951,3.997,4.0021,4.0008,4.003,4.0013,4.0079,4.0016,4.0024,4.0013,4.0011,4.0015,4.0091,4.0093,4.0095,4.0096,0,3.9951,3.9939,3.9963,3.9984,4.0003,4.0017,4.0028,4.0046,4.0014,4.0036,4.0066,4.0082,4.0112,4.0138,4.0156,4.0155,4.0121,4.0116,4.013,4.0139,4.0146,4.0143,3.9944,4.0112,4.011,4.0109,4.0108,4.0107,4.0066,4.0099,4.0102,4.013,4.0135,4.0147,4.0175,4.0166,4.0191,4.0213,4.0193,4.023,4.0234,4.0254,4.0258,4.0286,4.0258,4.0279,4.0283,4.0289,4.0296,4.0143,4.0289,4.0288,4.0288,4.0288,4.0287,0,4.0218,4.0217,4.0243,4.0261,4.0283,4.0249,4.0259,4.028,4.0313,4.0319,4.034,4.0375,4.04,4.039,4.0413,4.0437,4.0422,4.0444,4.0441,4.0442,4.032,4.0305,4.0456,4.0456,4.0456,4.0456,4.0456,4.0456,4.0299,4.0353,4.0341,4.0397,4.0396,4.0432,4.044,4.0451,4.0456,4.0497,4.0518,4.0512,4.0512,4.0534,4.0556,4.0552,4.0563,4.0591,4.0581,4.0467,4.045,4.0435,4.0421,4.0593,4.0593,4.0701,4.0702,4.0702]},{"header":{"parameterUnit":"m.s-1","parameterCategory":1,"la1":30.2991,"la2":30.254,"lo1":-89.0895,"lo2":-89.0444,"dx":0.0017,"dy":0.0017,"nx":28,"ny":28,"refTime":"2022-12-14T09:00:00:Z","depth":0,"parameterNumber":3,"parameterNumberName":"V-component_of_WINDS"},"data":[0,0,0,0,0,0,0,0,0,0,0,0,0,0,0,0,0,0,0,0,0,0,0,0,0,0,0,0,0,0,0,0,0,0,0,0,0,0,0,0,0,0,0,0,0,0,0,0,0,0,0,0,0,0,0,0,0,0,-3.7517,-3.7519,0,-3.7744,-3.7747,-3.7749,-3.7772,-3.7769,-3.7767,-3.7765,-3.8,-3.8009,-3.8017,0,0,0,0,0,0,0,0,0,0,0,0,0,-3.7106,-3.7113,-3.7517,-3.752,-3.7522,-3.7744,-3.7747,-3.775,-3.7772,-3.7769,-3.7766,-3.7764,-3.7998,-3.8008,-3.8018,0,0,0,0,0,0,0,0,0,0,0,0,0,-3.7304,-3.7116,-3.7516,-3.756,-3.7566,-3.7743,-3.7747,-3.7751,-3.7773,-3.7769,-3.7766,-3.7762,-3.7994,-3.8007,-3.8019,-3.8169,0,0,-3.8058,-3.8064,0,0,0,0,0,0,0,0,-3.7293,-3.7319,-3.7551,-3.7557,-3.7565,-3.7726,-3.7688,-3.7891,-3.7774,-3.7695,-3.7765,-3.7761,-3.7912,-3.7931,-3.7982,-3.818,-3.819,-3.8059,-3.8067,-3.8072,-3.8076,0,0,0,0,0,0,0,-3.7279,-3.7309,-3.7607,-3.7554,-3.7563,-3.757,-3.7594,-3.7727,-3.7821,-3.7701,-3.7703,-3.773,-3.7915,-3.797,-3.7988,-3.8193,-3.8059,-3.807,-3.8078,-3.8083,-3.8527,-3.8531,0,0,0,0,0,0,-3.7257,-3.7298,-3.76,-3.7614,-3.7417,-3.758,-3.7607,-3.7678,-3.7819,-3.7837,-3.7732,-3.773,-3.795,-3.7973,-3.7996,-3.8182,-3.8072,-3.8084,-3.8092,-3.8523,-3.8528,-3.8533,0,0,0,0,0,0,-3.7248,-3.7283,-3.759,-3.7457,-3.7496,-3.7591,-3.767,-3.7684,-3.7738,-3.7843,-3.786,-3.7771,-3.7948,-3.7978,-3.8126,-3.819,-3.809,-3.8102,-3.8518,-3.8525,-3.8531,-3.8553,0,0,0,0,0,0,-3.7236,-3.728,-3.7337,-3.7458,-3.7503,-3.7715,-3.7674,-3.7691,-3.776,-3.7759,-3.7883,-3.79,-3.7947,-3.8107,-3.8139,-3.8206,-3.8111,-3.8513,-3.8521,-3.8529,-3.8547,-3.856,-3.857,0,0,0,0,0,-3.7221,-3.7334,-3.7339,-3.7376,-3.7576,-3.7719,-3.7745,-3.7796,-3.7765,-3.7824,-3.7891,-3.7896,-3.8178,-3.8122,-3.8158,-3.823,-3.8509,-3.8519,-3.8528,-3.8542,-3.8557,-3.857,0,0,0,0,0,0,-3.722,-3.7351,-3.7358,-3.7514,-3.7605,-3.7722,-3.7798,-3.781,-3.7913,-3.7908,-3.7967,-3.7995,-3.8141,-3.82,-3.8135,-3.8383,-3.8341,-3.8358,-3.8339,-3.8354,-3.8365,-3.8349,-3.8122,0,0,0,0,0,-3.7237,-3.7341,-3.7451,-3.7578,-3.7623,-3.7703,-3.7767,-3.7798,-3.7895,-3.7934,-3.8013,-3.8108,-3.8218,-3.8289,-3.8396,-3.8556,-3.8584,-3.8623,-3.8635,-3.8643,-3.8658,-3.8748,-3.8768,-3.8564,-3.8564,-3.8563,0,0,-3.7275,-3.736,-3.7422,-3.758,-3.7654,-3.7762,-3.7735,-3.785,-3.7931,-3.7952,-3.8097,-3.8157,-3.8268,-3.8422,-3.8495,-3.8476,-3.872,-3.8655,-3.8662,-3.8672,-3.876,-3.8779,-3.8796,-3.857,-3.8569,-3.8568,0,0,-3.7399,-3.7473,-3.7587,-3.7663,-3.7775,-3.7828,-3.7855,-3.7971,-3.8012,-3.8158,-3.8176,-3.8274,-3.8462,-3.8541,-3.8605,-3.876,-3.8769,-3.8793,-3.8853,-3.8941,-3.8957,-3.8971,-3.9028,-3.9048,-3.8807,-3.8807,-3.8807,0,-3.7433,-3.7594,-3.7645,-3.776,-3.7829,-3.7853,-3.797,-3.8041,-3.8183,-3.8231,-3.8208,-3.8446,-3.8521,-3.8696,-3.8733,-3.8784,-3.8819,-3.8779,-3.895,-3.8965,-3.898,-3.9035,-3.9056,-3.8809,-3.8809,-3.8809,-3.8808,0,-3.763,-3.7743,-3.7822,-3.7958,-3.8036,-3.8151,-3.8221,-3.8295,-3.8319,-3.8374,-3.8523,-3.8615,-3.8742,-3.8785,-3.8811,-3.8964,-3.8949,-3.8937,-3.8896,-3.9,-3.9053,-3.9074,-3.8812,-3.8811,-3.8811,-3.881,0,0,-3.7761,-3.7923,-3.7951,-3.8014,-3.814,-3.8229,-3.8346,-3.8469,-3.8532,-3.8629,-3.873,-3.8889,-3.8879,-3.8952,-3.8987,-3.9064,-3.9182,-3.9043,-3.9047,-3.9067,-3.9359,-3.9368,-3.9391,-3.9189,-3.9193,-3.9197,-3.935,0,-3.79,-3.8108,-3.8157,-3.8336,-3.8441,-3.8465,-3.8568,-3.8657,-3.8712,-3.8811,-3.8872,-3.8984,-3.8962,-3.9006,-3.9083,-3.9151,-3.9242,-3.9141,-3.9285,-3.929,-3.9258,-3.9418,-3.9428,-3.9568,-3.9371,-3.9374,-3.9377,0,-3.8091,-3.8192,-3.8381,-3.8494,-3.854,-3.8631,-3.8749,-3.8842,-3.8945,-3.8979,-3.9061,-3.9088,-3.9213,-3.9165,-3.9338,-3.9268,-3.933,-3.9373,-3.938,-3.9396,-3.934,-3.944,-3.9614,-3.9636,-3.941,-3.9407,-3.9405,0,-3.8168,-3.8352,-3.8489,-3.8541,-3.8677,-3.8741,-3.88,-3.8899,-3.897,-3.9074,-3.9121,-3.9237,-3.9301,-3.9391,-3.945,-3.9409,-3.962,-3.9576,-3.9653,-3.9652,-3.9697,-3.9694,-3.9885,-3.9735,-3.9735,-3.9734,-3.9734,0,-3.832,-3.8435,-3.8525,-3.861,-3.874,-3.8796,-3.8924,-3.8985,-3.9073,-3.9171,-3.9199,-3.929,-3.9361,-3.9463,-3.951,-3.9647,-3.9676,-3.9709,-3.972,-3.9707,-3.9703,-3.9749,-3.9741,-3.974,-3.9739,-3.9738,-3.9737,0,-3.8428,-3.8494,-3.8645,-3.8761,-3.8793,-3.8884,-3.8984,-3.9068,-3.9123,-3.9247,-3.9279,-3.9367,-3.9489,-3.9555,-3.9708,-3.974,-3.9894,-3.9899,-3.9859,-3.9864,-3.9939,-3.9931,-4.0167,-4.0202,-4.0027,-4.0029,-4.003,0,-3.8521,-3.861,-3.8736,-3.8803,-3.8863,-3.8971,-3.9044,-3.9103,-3.9178,-3.9302,-3.9371,-3.9494,-3.9595,-3.9789,-3.9867,-3.9985,-3.9994,-4.0069,-4.0012,-3.9997,-3.9997,-3.9992,-4.0002,-4.0079,-4.008,-4.0082,-4.0083,0,-3.868,-3.8708,-3.8811,-3.8926,-3.9011,-3.9105,-3.9198,-3.9252,-3.9326,-3.9409,-3.9533,-3.9612,-3.9768,-3.989,-4.0014,-4.0077,-4.0094,-4.01,-4.0124,-4.0113,-4.0086,-4.0103,-3.9887,-4.0094,-4.0093,-4.0092,-4.0092,-4.0091,-3.8785,-3.8866,-3.8966,-3.9081,-3.9157,-3.9243,-3.9328,-3.9394,-3.9498,-3.9629,-3.9657,-3.9789,-3.9891,-4.0059,-4.0125,-4.023,-4.0216,-4.0251,-4.026,-4.0268,-4.0272,-4.0068,-4.0253,-4.0252,-4.0252,-4.0252,-4.0252,0,-3.8946,-3.9012,-3.9116,-3.9245,-3.9336,-3.9341,-3.9445,-3.9521,-3.9635,-3.9728,-3.9828,-3.9971,-4.009,-4.0178,-4.03,-4.0367,-4.0378,-4.0397,-4.0394,-4.0409,-4.0277,-4.0244,-4.0387,-4.0387,-4.0387,-4.0387,-4.0387,-4.0387,-3.9041,-3.9178,-3.9218,-3.9394,-3.946,-3.9588,-3.9647,-3.9727,-3.9802,-3.996,-4.0059,-4.0115,-4.0207,-4.0336,-4.0446,-4.0469,-4.0514,-4.0533,-4.0557,-4.0432,-4.0418,-4.0404,-4.0374,-4.0541,-4.0541,-4.068,-4.0681,-4.0682]}]]